Location: La Silve
(44.2414°N, 5.8889°E)
Time: 04:29:21
(UTC+00:00)

Lacrosse 5 rocket - Pass Details

Date: 01 December 2020
Orbit: 461 x 634 km, 57.0° (Epoch: 24 January)

Event Time Altitude Azimuth Distance (km) Brightness Sun altitude
Rises 16:41:46 0° 244° (WSW) 2,542 7.3 -7.7°
Reaches altitude 10° 16:44:02 10° 251° (WSW) 1,645 5.5 -8.1°
Maximum altitude 16:47:32 43° 324° (NW) 673 1.9 -8.7°
Drops below altitude 10° 16:51:00 10° 38° (NE) 1,616 3.2 -9.2°
Enters shadow 16:51:06 - 38° (NE) 1,656 3.2 -9.2°
